AAL2338 KPHL-KMCO

Flight info

Callsign AAL2338
Flight time 1h 59m
Altitude 40000
Route OOD TEBEE HAYDO TRPOD Q409 CRPLR Q85 LPERD SNFLD3
Aircraft B38M/M-SDE1FGHILORVWXY/HB1

Departure

Time 2026-04-22 15:02
Airport Philadelphia International Airport (KPHL)

Arrival

Time 2026-04-22 17:02
Airport Orlando International Airport (KMCO)
Time Latitude Longitude Altitude Speed Heading
2026-04-22 14:31 39.87432 -75.24972 28 ft 0 kts 344°
2026-04-22 14:54 39.87423 -75.24969 28 ft 4 kts 344°
2026-04-22 14:54 39.87397 -75.24960 28 ft 4 kts 344°
2026-04-22 14:54 39.87373 -75.24951 28 ft 2 kts 344°
2026-04-22 14:54 39.87350 -75.24944 28 ft 4 kts 354°
2026-04-22 14:55 39.87323 -75.24945 28 ft 4 kts
2026-04-22 14:55 39.87306 -75.24949 28 ft 4 kts 14°
2026-04-22 14:55 39.87283 -75.24963 28 ft 4 kts 50°
2026-04-22 14:55 39.87278 -75.24984 28 ft 4 kts 124°
2026-04-22 14:56 39.87297 -75.24995 28 ft 4 kts 165°
2026-04-22 14:56 39.87305 -75.24998 28 ft 1 kts 165°
2026-04-22 14:58 39.87301 -75.24997 28 ft 2 kts 165°
2026-04-22 14:58 39.87272 -75.24987 28 ft 1 kts 165°
2026-04-22 14:59 39.87260 -75.24983 28 ft 3 kts 165°
2026-04-22 14:59 39.87227 -75.24972 28 ft 6 kts 165°
2026-04-22 14:59 39.87174 -75.24954 28 ft 9 kts 165°
2026-04-22 14:59 39.87112 -75.24953 28 ft 7 kts 220°
2026-04-22 15:00 39.87091 -75.25017 28 ft 9 kts 255°
2026-04-22 15:00 39.87072 -75.25120 28 ft 14 kts 257°
2026-04-22 15:00 39.87041 -75.25272 28 ft 20 kts 255°
2026-04-22 15:00 39.87001 -75.25456 28 ft 12 kts 242°
2026-04-22 15:01 39.86990 -75.25468 28 ft 0 kts 195°
2026-04-22 15:01 39.86988 -75.25469 28 ft 2 kts 187°
2026-04-22 15:01 39.86945 -75.25460 28 ft 11 kts 166°
2026-04-22 15:02 39.86904 -75.25391 28 ft 8 kts 76°
2026-04-22 15:02 39.86948 -75.25165 28 ft 66 kts 75°
2026-04-22 15:02 39.87143 -75.24198 30 ft 152 kts 75°
2026-04-22 15:02 39.87442 -75.22740 693 ft 172 kts 82°
2026-04-22 15:03 39.87255 -75.21312 1952 ft 164 kts 120°
2026-04-22 15:03 39.86356 -75.20270 2717 ft 187 kts 159°
2026-04-22 15:03 39.84994 -75.20181 3546 ft 213 kts 197°
2026-04-22 15:03 39.83757 -75.21369 4516 ft 237 kts 236°
2026-04-22 15:04 39.82989 -75.23336 5749 ft 246 kts 242°
2026-04-22 15:04 39.81834 -75.24950 7207 ft 252 kts 213°
2026-04-22 15:04 39.80077 -75.25521 8403 ft 271 kts 191°
2026-04-22 15:04 39.78182 -75.25871 9442 ft 279 kts 199°
2026-04-22 15:05 39.76276 -75.26453 10550 ft 286 kts 200°
2026-04-22 15:05 39.74272 -75.27064 11325 ft 305 kts 200°
2026-04-22 15:05 39.72147 -75.27710 12130 ft 321 kts 200°
2026-04-22 15:05 39.69935 -75.28381 13033 ft 331 kts 200°
2026-04-22 15:06 39.67685 -75.29066 14101 ft 334 kts 200°
2026-04-22 15:06 39.65397 -75.29764 15049 ft 340 kts 200°
2026-04-22 15:06 39.63055 -75.30401 15931 ft 350 kts 194°
2026-04-22 15:06 39.60629 -75.30814 16845 ft 354 kts 194°
2026-04-22 15:07 39.58170 -75.31254 17657 ft 359 kts 194°
2026-04-22 15:07 39.55679 -75.31714 18485 ft 364 kts 194°
2026-04-22 15:07 39.53158 -75.32188 19228 ft 369 kts 194°
2026-04-22 15:07 39.50600 -75.32668 19946 ft 374 kts 194°
2026-04-22 15:08 39.48227 -75.33093 20593 ft 378 kts 194°
2026-04-22 15:08 39.46773 -75.33356 20989 ft 380 kts 194°
2026-04-22 15:08 39.45145 -75.33650 21388 ft 384 kts 194°
2026-04-22 15:08 39.42481 -75.34131 22042 ft 388 kts 194°
2026-04-22 15:09 39.39794 -75.34617 22686 ft 392 kts 194°
2026-04-22 15:09 39.37114 -75.35099 23286 ft 396 kts 194°
2026-04-22 15:09 39.34745 -75.35527 23769 ft 400 kts 194°
2026-04-22 15:09 39.31984 -75.36021 24528 ft 395 kts 194°
2026-04-22 15:10 39.29301 -75.36498 25466 ft 390 kts 194°
2026-04-22 15:10 39.26537 -75.37004 25595 ft 404 kts 194°
2026-04-22 15:10 39.23741 -75.37507 25806 ft 416 kts 194°
2026-04-22 15:10 39.20868 -75.38022 26342 ft 417 kts 194°
2026-04-22 15:11 39.17978 -75.38539 26784 ft 422 kts 194°
2026-04-22 15:11 39.15056 -75.39061 27235 ft 425 kts 194°
2026-04-22 15:11 39.12120 -75.39584 27716 ft 428 kts 194°
2026-04-22 15:11 39.09154 -75.40113 28130 ft 432 kts 194°
2026-04-22 15:12 39.06168 -75.40645 28562 ft 435 kts 194°
2026-04-22 15:12 39.03158 -75.41181 28985 ft 438 kts 193°
2026-04-22 15:12 39.00128 -75.41720 29395 ft 441 kts 193°
2026-04-22 15:12 38.97077 -75.42262 29802 ft 444 kts 193°
2026-04-22 15:13 38.94002 -75.42808 30182 ft 447 kts 193°
2026-04-22 15:13 38.90910 -75.43357 30582 ft 450 kts 193°
2026-04-22 15:13 38.87802 -75.43907 30970 ft 452 kts 193°
2026-04-22 15:13 38.84677 -75.44461 31352 ft 455 kts 193°
2026-04-22 15:14 38.81533 -75.45017 31724 ft 457 kts 193°
2026-04-22 15:14 38.78377 -75.45575 32083 ft 459 kts 193°
2026-04-22 15:14 38.75203 -75.46136 32429 ft 462 kts 193°
2026-04-22 15:14 38.72009 -75.46699 32786 ft 464 kts 193°
2026-04-22 15:15 38.68805 -75.47264 33118 ft 466 kts 193°
2026-04-22 15:15 38.65629 -75.47824 33449 ft 468 kts 193°
2026-04-22 15:15 38.62353 -75.48400 33772 ft 470 kts 193°
2026-04-22 15:15 38.59160 -75.48961 34166 ft 469 kts 193°
2026-04-22 15:16 38.55931 -75.49527 34605 ft 467 kts 193°
2026-04-22 15:16 38.52715 -75.50092 35016 ft 467 kts 193°
2026-04-22 15:16 38.49496 -75.50657 35326 ft 467 kts 193°
2026-04-22 15:16 38.46268 -75.51223 35646 ft 468 kts 193°
2026-04-22 15:17 38.43044 -75.51787 35944 ft 468 kts 192°
2026-04-22 15:17 38.39812 -75.52352 36227 ft 469 kts 192°
2026-04-22 15:17 38.36582 -75.52938 36491 ft 469 kts 195°
2026-04-22 15:17 38.33516 -75.54166 36760 ft 456 kts 212°
2026-04-22 15:18 38.30853 -75.56266 37043 ft 450 kts 219°
2026-04-22 15:18 38.28222 -75.58462 37208 ft 453 kts 218°
2026-04-22 15:18 38.25597 -75.60682 37474 ft 453 kts 219°
2026-04-22 15:18 38.22988 -75.62920 37736 ft 452 kts 219°
2026-04-22 15:19 38.20385 -75.65173 37990 ft 452 kts 219°
2026-04-22 15:19 38.17786 -75.67429 38214 ft 453 kts 219°
2026-04-22 15:19 38.15186 -75.69686 38470 ft 453 kts 219°
2026-04-22 15:19 38.12587 -75.71943 38686 ft 453 kts 219°
2026-04-22 15:20 38.09983 -75.74200 38910 ft 453 kts 219°
2026-04-22 15:20 38.07387 -75.76450 39131 ft 452 kts 219°
2026-04-22 15:20 38.04783 -75.78705 39318 ft 453 kts 219°
2026-04-22 15:20 38.02181 -75.80955 39511 ft 453 kts 219°
2026-04-22 15:21 37.99576 -75.83207 39712 ft 453 kts 219°
2026-04-22 15:21 37.96975 -75.85453 39906 ft 452 kts 219°
2026-04-22 15:21 37.94377 -75.87694 40062 ft 452 kts 219°
2026-04-22 15:21 37.91768 -75.89944 40145 ft 455 kts 219°
2026-04-22 15:22 37.86481 -75.94495 40130 ft 464 kts 219°
2026-04-22 15:22 37.81095 -75.99123 40128 ft 471 kts 219°
2026-04-22 15:23 37.75743 -76.03713 40138 ft 456 kts 219°
2026-04-22 15:23 37.70531 -76.08177 40132 ft 451 kts 219°
2026-04-22 15:24 37.65369 -76.12590 40133 ft 451 kts 219°
2026-04-22 15:24 37.60131 -76.16948 40129 ft 453 kts 214°
2026-04-22 15:25 37.54716 -76.21005 40138 ft 453 kts 216°
2026-04-22 15:25 37.49320 -76.25100 40138 ft 453 kts 216°
2026-04-22 15:26 37.43927 -76.29192 40139 ft 452 kts 216°
2026-04-22 15:26 37.38538 -76.33274 40146 ft 452 kts 216°
2026-04-22 15:27 37.33148 -76.37350 40146 ft 452 kts 216°
2026-04-22 15:27 37.27762 -76.41415 40150 ft 451 kts 216°
2026-04-22 15:28 37.22381 -76.45471 40146 ft 451 kts 216°
2026-04-22 15:28 37.17005 -76.49515 40149 ft 450 kts 216°
2026-04-22 15:29 37.11630 -76.53553 40157 ft 450 kts 216°
2026-04-22 15:30 37.04485 -76.58908 40157 ft 450 kts 216°
2026-04-22 15:30 36.98213 -76.63600 40154 ft 449 kts 216°
2026-04-22 15:31 36.92850 -76.67605 40161 ft 449 kts 216°
2026-04-22 15:31 36.87485 -76.71605 40163 ft 449 kts 216°
2026-04-22 15:32 36.82115 -76.75601 40174 ft 449 kts 216°
2026-04-22 15:32 36.76751 -76.79587 40174 ft 449 kts 216°
2026-04-22 15:33 36.71386 -76.83567 40174 ft 448 kts 216°
2026-04-22 15:33 36.66022 -76.87539 40175 ft 449 kts 216°
2026-04-22 15:34 36.60656 -76.91506 40173 ft 448 kts 216°
2026-04-22 15:34 36.55327 -76.95441 40175 ft 449 kts 216°
2026-04-22 15:35 36.50830 -76.98755 40181 ft 449 kts 216°
2026-04-22 15:35 36.44588 -77.03347 40191 ft 448 kts 216°
2026-04-22 15:36 36.39217 -77.07293 40188 ft 449 kts 216°
2026-04-22 15:36 36.33839 -77.11238 40204 ft 449 kts 216°
2026-04-22 15:37 36.28452 -77.15182 40201 ft 450 kts 216°
2026-04-22 15:37 36.23059 -77.19124 40199 ft 450 kts 215°
2026-04-22 15:38 36.17667 -77.23060 40200 ft 450 kts 215°
2026-04-22 15:38 36.09570 -77.28959 40209 ft 451 kts 215°
2026-04-22 15:39 36.04213 -77.32976 40203 ft 447 kts 222°
2026-04-22 15:39 35.99330 -77.37700 40206 ft 447 kts 223°
2026-04-22 15:40 35.94449 -77.42404 40222 ft 444 kts 223°
2026-04-22 15:40 35.89595 -77.47090 40219 ft 443 kts 223°
2026-04-22 15:41 35.84731 -77.51780 40218 ft 444 kts 223°
2026-04-22 15:41 35.79863 -77.56466 40221 ft 445 kts 223°
2026-04-22 15:42 35.74986 -77.61153 40221 ft 445 kts 223°
2026-04-22 15:42 35.70105 -77.65836 40228 ft 445 kts 223°
2026-04-22 15:43 35.65223 -77.70514 40232 ft 445 kts 223°
2026-04-22 15:43 35.61160 -77.74400 40228 ft 445 kts 223°
2026-04-22 15:44 35.56276 -77.79066 40238 ft 445 kts 223°
2026-04-22 15:44 35.51388 -77.83728 40253 ft 444 kts 223°
2026-04-22 15:45 35.46506 -77.88376 40244 ft 444 kts 223°
2026-04-22 15:45 35.41633 -77.93009 40244 ft 443 kts 223°
2026-04-22 15:46 35.36758 -77.97636 40241 ft 443 kts 223°
2026-04-22 15:46 35.31890 -78.02250 40230 ft 442 kts 223°
2026-04-22 15:47 35.27015 -78.06862 40240 ft 444 kts 223°
2026-04-22 15:47 35.22134 -78.11473 40247 ft 443 kts 223°
2026-04-22 15:48 35.17262 -78.16069 40261 ft 442 kts 223°
2026-04-22 15:48 35.12405 -78.20644 40255 ft 441 kts 223°
2026-04-22 15:49 35.07548 -78.25212 40266 ft 440 kts 223°
2026-04-22 15:49 35.02701 -78.29764 40268 ft 439 kts 223°
2026-04-22 15:50 34.97858 -78.34304 40275 ft 439 kts 223°
2026-04-22 15:50 34.93026 -78.38828 40274 ft 438 kts 223°
2026-04-22 15:51 34.88196 -78.43343 40279 ft 437 kts 223°
2026-04-22 15:51 34.83373 -78.47846 40275 ft 437 kts 223°
2026-04-22 15:52 34.78554 -78.52337 40274 ft 436 kts 223°
2026-04-22 15:52 34.73740 -78.56817 40275 ft 435 kts 223°
2026-04-22 15:53 34.68930 -78.61287 40283 ft 435 kts 223°
2026-04-22 15:53 34.64123 -78.65747 40283 ft 434 kts 223°
2026-04-22 15:54 34.59319 -78.70198 40286 ft 434 kts 223°
2026-04-22 15:54 34.54515 -78.74642 40285 ft 434 kts 223°
2026-04-22 15:55 34.49705 -78.79081 40287 ft 434 kts 223°
2026-04-22 15:55 34.44886 -78.83509 40293 ft 435 kts 221°
2026-04-22 15:56 34.39902 -78.87719 40298 ft 437 kts 220°
2026-04-22 15:56 34.34927 -78.91939 40295 ft 437 kts 220°
2026-04-22 15:57 34.29990 -78.96126 40294 ft 436 kts 220°
2026-04-22 15:57 34.25010 -79.00332 40296 ft 437 kts 220°
2026-04-22 15:58 34.20018 -79.04524 40302 ft 437 kts 220°
2026-04-22 15:58 34.15022 -79.08715 40302 ft 437 kts 220°
2026-04-22 15:59 34.10023 -79.12903 40302 ft 437 kts 220°
2026-04-22 15:59 34.05021 -79.17088 40301 ft 438 kts 220°
2026-04-22 16:00 34.00014 -79.21273 40303 ft 438 kts 220°
2026-04-22 16:00 33.95021 -79.25442 40306 ft 434 kts 220°
2026-04-22 16:01 33.90066 -79.29573 40297 ft 433 kts 220°
2026-04-22 16:01 33.85105 -79.33702 40293 ft 434 kts 220°
2026-04-22 16:02 33.80141 -79.37829 40294 ft 434 kts 220°
2026-04-22 16:02 33.75167 -79.41958 40295 ft 435 kts 220°
2026-04-22 16:03 33.70190 -79.46083 40293 ft 435 kts 220°
2026-04-22 16:03 33.65246 -79.50175 40301 ft 435 kts 220°
2026-04-22 16:04 33.60265 -79.54291 40304 ft 435 kts 220°
2026-04-22 16:04 33.55279 -79.58407 40302 ft 435 kts 220°
2026-04-22 16:05 33.50296 -79.62513 40303 ft 435 kts 220°
2026-04-22 16:05 33.45313 -79.66614 40302 ft 434 kts 220°
2026-04-22 16:06 33.40339 -79.70703 40304 ft 434 kts 220°
2026-04-22 16:06 33.35361 -79.74788 40303 ft 433 kts 220°
2026-04-22 16:07 33.30393 -79.78857 40304 ft 433 kts 220°
2026-04-22 16:07 33.25425 -79.82921 40312 ft 432 kts 220°
2026-04-22 16:08 33.20464 -79.86973 40309 ft 432 kts 220°
2026-04-22 16:08 33.15507 -79.91016 40312 ft 431 kts 220°
2026-04-22 16:09 33.10559 -79.95047 40310 ft 430 kts 220°
2026-04-22 16:09 33.05616 -79.99068 40312 ft 429 kts 220°
2026-04-22 16:10 33.00682 -80.03076 40311 ft 430 kts 220°
2026-04-22 16:10 32.95768 -80.07062 40302 ft 430 kts 220°
2026-04-22 16:11 32.90828 -80.11064 40305 ft 429 kts 220°
2026-04-22 16:11 32.85895 -80.15055 40304 ft 429 kts 220°
2026-04-22 16:12 32.80968 -80.19035 40304 ft 428 kts 220°
2026-04-22 16:12 32.76046 -80.23006 40301 ft 427 kts 220°
2026-04-22 16:13 32.71135 -80.26963 40312 ft 426 kts 220°
2026-04-22 16:13 32.66231 -80.30909 40315 ft 425 kts 220°
2026-04-22 16:14 32.61334 -80.34844 40321 ft 425 kts 220°
2026-04-22 16:14 32.56317 -80.38585 40324 ft 429 kts 215°
2026-04-22 16:15 32.51123 -80.42041 40322 ft 428 kts 216°
2026-04-22 16:15 32.45954 -80.45533 40319 ft 428 kts 216°
2026-04-22 16:16 32.40791 -80.49023 40322 ft 427 kts 216°
2026-04-22 16:16 32.35631 -80.52507 40319 ft 427 kts 216°
2026-04-22 16:17 32.30472 -80.55985 40322 ft 427 kts 216°
2026-04-22 16:17 32.25311 -80.59461 40320 ft 427 kts 216°
2026-04-22 16:18 32.20154 -80.62928 40329 ft 427 kts 216°
2026-04-22 16:18 32.14994 -80.66394 40327 ft 427 kts 216°
2026-04-22 16:19 32.09861 -80.69836 40331 ft 427 kts 216°
2026-04-22 16:19 32.04692 -80.73299 40328 ft 427 kts 216°
2026-04-22 16:20 31.99520 -80.76758 40321 ft 427 kts 216°
2026-04-22 16:20 31.94359 -80.80207 40316 ft 425 kts 217°
2026-04-22 16:21 31.89227 -80.83631 40303 ft 424 kts 217°
2026-04-22 16:21 31.84097 -80.87049 40298 ft 424 kts 217°
2026-04-22 16:22 31.76412 -80.92162 40291 ft 423 kts 216°
2026-04-22 16:23 31.68726 -80.97265 40293 ft 423 kts 216°
2026-04-22 16:23 31.63600 -81.00664 40293 ft 423 kts 216°
2026-04-22 16:24 31.55825 -81.05632 40306 ft 425 kts 214°
2026-04-22 16:25 31.50589 -81.08852 40304 ft 425 kts 215°
2026-04-22 16:25 31.42734 -81.13688 40309 ft 425 kts 215°
2026-04-22 16:26 31.37485 -81.16885 40304 ft 426 kts 214°
2026-04-22 16:26 31.32203 -81.20024 40304 ft 426 kts 214°
2026-04-22 16:27 31.26951 -81.23148 40313 ft 426 kts 214°
2026-04-22 16:27 31.21664 -81.26291 40313 ft 426 kts 214°
2026-04-22 16:28 31.18915 -81.27638 40290 ft 436 kts 201°
2026-04-22 16:28 31.15870 -81.28114 40291 ft 449 kts 188°
2026-04-22 16:28 31.12745 -81.28143 39919 ft 447 kts 188°
2026-04-22 16:28 31.09607 -81.28195 38929 ft 456 kts 188°
2026-04-22 16:29 31.06416 -81.28218 37953 ft 458 kts 187°
2026-04-22 16:29 31.03246 -81.28220 37405 ft 452 kts 187°
2026-04-22 16:29 31.00127 -81.28215 37055 ft 444 kts 187°
2026-04-22 16:29 30.97061 -81.28208 36632 ft 438 kts 187°
2026-04-22 16:30 30.95009 -81.28203 36279 ft 436 kts 187°
2026-04-22 16:30 30.91001 -81.28194 35498 ft 434 kts 187°
2026-04-22 16:30 30.87984 -81.28186 34956 ft 432 kts 187°
2026-04-22 16:30 30.84991 -81.28178 34448 ft 429 kts 186°
2026-04-22 16:31 30.82013 -81.28170 33932 ft 427 kts 186°
2026-04-22 16:31 30.79055 -81.28163 33421 ft 424 kts 186°
2026-04-22 16:31 30.76114 -81.28155 32912 ft 421 kts 186°
2026-04-22 16:31 30.73189 -81.28148 32408 ft 419 kts 186°
2026-04-22 16:32 30.71263 -81.28143 32078 ft 417 kts 186°
2026-04-22 16:32 30.68365 -81.28136 31591 ft 415 kts 186°
2026-04-22 16:32 30.65488 -81.28129 31108 ft 412 kts 186°
2026-04-22 16:32 30.62627 -81.28121 30616 ft 410 kts 186°
2026-04-22 16:33 30.59781 -81.28060 30197 ft 409 kts 181°
2026-04-22 16:33 30.56958 -81.27801 29802 ft 404 kts 181°
2026-04-22 16:33 30.54176 -81.27577 29496 ft 398 kts 182°
2026-04-22 16:33 30.51431 -81.27367 29167 ft 393 kts 182°
2026-04-22 16:34 30.48721 -81.27164 28831 ft 388 kts 182°
2026-04-22 16:34 30.46032 -81.26964 28503 ft 388 kts 182°
2026-04-22 16:34 30.43341 -81.26765 28178 ft 386 kts 182°
2026-04-22 16:34 30.40665 -81.26566 27849 ft 385 kts 182°
2026-04-22 16:35 30.38003 -81.26369 27523 ft 382 kts 182°
2026-04-22 16:35 30.35358 -81.26173 27196 ft 380 kts 182°
2026-04-22 16:35 30.32728 -81.25979 26878 ft 378 kts 182°
2026-04-22 16:35 30.30115 -81.25785 26556 ft 375 kts 182°
2026-04-22 16:36 30.27516 -81.25593 26235 ft 373 kts 182°
2026-04-22 16:36 30.24934 -81.25402 25923 ft 371 kts 182°
2026-04-22 16:36 30.22370 -81.25213 25603 ft 369 kts 182°
2026-04-22 16:36 30.19813 -81.25024 25294 ft 366 kts 182°
2026-04-22 16:37 30.17275 -81.24838 24982 ft 364 kts 182°
2026-04-22 16:37 30.14751 -81.24651 24671 ft 362 kts 182°
2026-04-22 16:37 30.12244 -81.24467 24368 ft 360 kts 182°
2026-04-22 16:37 30.09755 -81.24284 24062 ft 357 kts 182°
2026-04-22 16:38 30.07278 -81.24101 23761 ft 356 kts 182°
2026-04-22 16:38 30.04817 -81.23920 23467 ft 353 kts 182°
2026-04-22 16:38 30.02371 -81.23739 23156 ft 351 kts 182°
2026-04-22 16:38 29.99937 -81.23561 22863 ft 349 kts 182°
2026-04-22 16:39 29.97517 -81.23383 22565 ft 348 kts 182°
2026-04-22 16:39 29.95112 -81.23207 22274 ft 346 kts 182°
2026-04-22 16:39 29.92714 -81.23030 21983 ft 344 kts 182°
2026-04-22 16:39 29.90360 -81.22858 21680 ft 342 kts 182°
2026-04-22 16:40 29.87993 -81.22684 21396 ft 340 kts 181°
2026-04-22 16:40 29.85633 -81.22512 21109 ft 338 kts 181°
2026-04-22 16:40 29.80964 -81.22170 20537 ft 334 kts 181°
2026-04-22 16:41 29.78651 -81.22001 20252 ft 333 kts 181°
2026-04-22 16:41 29.76350 -81.21832 19965 ft 331 kts 181°
2026-04-22 16:41 29.74059 -81.21665 19683 ft 328 kts 181°
2026-04-22 16:41 29.71787 -81.21498 19410 ft 326 kts 181°
2026-04-22 16:42 29.69516 -81.21309 19032 ft 328 kts 180°
2026-04-22 16:42 29.67260 -81.21113 18737 ft 323 kts 180°
2026-04-22 16:42 29.65043 -81.20924 18481 ft 317 kts 180°
2026-04-22 16:42 29.62841 -81.20735 18124 ft 317 kts 180°
2026-04-22 16:43 29.60649 -81.20547 17799 ft 314 kts 180°
2026-04-22 16:43 29.58479 -81.20361 17481 ft 312 kts 180°
2026-04-22 16:43 29.56321 -81.20177 17136 ft 310 kts 179°
2026-04-22 16:43 29.54169 -81.19980 16682 ft 311 kts 179°
2026-04-22 16:44 29.52005 -81.19804 16277 ft 312 kts 179°
2026-04-22 16:44 29.49843 -81.19625 15915 ft 311 kts 179°
2026-04-22 16:44 29.47696 -81.19440 15605 ft 308 kts 179°
2026-04-22 16:44 29.45570 -81.19261 15293 ft 305 kts 178°
2026-04-22 16:45 29.43466 -81.19083 15005 ft 301 kts 178°
2026-04-22 16:45 29.41372 -81.18903 14677 ft 301 kts 178°
2026-04-22 16:45 29.39285 -81.18729 14370 ft 299 kts 178°
2026-04-22 16:45 29.37206 -81.18549 14069 ft 300 kts 177°
2026-04-22 16:46 29.35131 -81.18371 13767 ft 298 kts 177°
2026-04-22 16:46 29.33071 -81.18196 13473 ft 296 kts 177°
2026-04-22 16:46 29.31018 -81.18021 13153 ft 295 kts 177°
2026-04-22 16:46 29.28980 -81.17844 12914 ft 295 kts 176°
2026-04-22 16:47 29.26879 -81.17659 12665 ft 311 kts 176°
2026-04-22 16:47 29.24670 -81.17465 12419 ft 323 kts 176°
2026-04-22 16:47 29.22415 -81.17267 12188 ft 328 kts 176°
2026-04-22 16:47 29.20138 -81.17067 12036 ft 324 kts 176°
2026-04-22 16:48 29.17961 -81.16656 11849 ft 316 kts 161°
2026-04-22 16:48 29.15929 -81.15745 11521 ft 312 kts 159°
2026-04-22 16:48 29.13907 -81.14869 11189 ft 309 kts 159°
2026-04-22 16:48 29.11928 -81.14021 10937 ft 299 kts 159°
2026-04-22 16:49 29.10000 -81.13196 10724 ft 293 kts 159°
2026-04-22 16:49 29.08110 -81.12389 10496 ft 287 kts 159°
2026-04-22 16:49 29.06257 -81.11598 10256 ft 282 kts 158°
2026-04-22 16:49 29.04434 -81.10835 10049 ft 276 kts 160°
2026-04-22 16:50 29.02617 -81.10147 9766 ft 274 kts 160°
2026-04-22 16:50 29.00813 -81.09460 9469 ft 273 kts 159°
2026-04-22 16:50 28.99014 -81.08773 9176 ft 271 kts 159°
2026-04-22 16:50 28.97226 -81.08130 8992 ft 269 kts 165°
2026-04-22 16:51 28.95352 -81.07870 8831 ft 274 kts 172°
2026-04-22 16:51 28.93443 -81.07665 8691 ft 275 kts 171°
2026-04-22 16:51 28.91568 -81.07456 8511 ft 274 kts 171°
2026-04-22 16:51 28.89673 -81.07248 8353 ft 274 kts 174°
2026-04-22 16:52 28.87774 -81.07571 8164 ft 277 kts 201°
2026-04-22 16:52 28.86183 -81.08719 8043 ft 271 kts 213°
2026-04-22 16:52 28.84637 -81.09933 7890 ft 263 kts 212°
2026-04-22 16:52 28.83157 -81.11094 7771 ft 256 kts 212°
2026-04-22 16:53 28.81719 -81.12221 7604 ft 255 kts 212°
2026-04-22 16:53 28.80235 -81.13391 7433 ft 254 kts 213°
2026-04-22 16:53 28.78815 -81.14517 7313 ft 252 kts 212°
2026-04-22 16:53 28.77363 -81.15668 7135 ft 255 kts 213°
2026-04-22 16:54 28.76099 -81.17092 6710 ft 263 kts 235°
2026-04-22 16:54 28.75431 -81.19030 6328 ft 264 kts 259°
2026-04-22 16:54 28.75190 -81.21094 5974 ft 260 kts 257°
2026-04-22 16:54 28.74520 -81.22965 5554 ft 252 kts 241°
2026-04-22 16:55 28.73757 -81.24711 5221 ft 240 kts 243°
2026-04-22 16:55 28.73055 -81.26387 4898 ft 231 kts 243°
2026-04-22 16:55 28.72377 -81.28024 4588 ft 226 kts 243°
2026-04-22 16:55 28.71718 -81.29635 4287 ft 222 kts 243°
2026-04-22 16:56 28.71069 -81.31209 4026 ft 215 kts 240°
2026-04-22 16:56 28.70099 -81.32402 3790 ft 202 kts 205°
2026-04-22 16:56 28.68805 -81.32841 3635 ft 190 kts 184°
2026-04-22 16:56 28.67493 -81.32932 3574 ft 189 kts 177°
2026-04-22 16:57 28.66172 -81.32928 3536 ft 190 kts 176°
2026-04-22 16:57 28.64845 -81.32914 3461 ft 191 kts 176°
2026-04-22 16:57 28.63524 -81.32898 3331 ft 189 kts 176°
2026-04-22 16:57 28.62209 -81.32884 3193 ft 188 kts 176°
2026-04-22 16:58 28.61341 -81.32874 3127 ft 189 kts 176°
2026-04-22 16:58 28.59580 -81.32855 2892 ft 190 kts 176°
2026-04-22 16:58 28.58277 -81.32843 2676 ft 181 kts 175°
2026-04-22 16:58 28.57042 -81.32830 2468 ft 176 kts 175°
2026-04-22 16:59 28.55824 -81.32816 2233 ft 175 kts 175°
2026-04-22 16:59 28.54616 -81.32804 2008 ft 170 kts 175°
2026-04-22 16:59 28.53456 -81.32790 1807 ft 164 kts 175°
2026-04-22 16:59 28.52313 -81.32776 1593 ft 163 kts 175°
2026-04-22 17:00 28.51208 -81.32766 1378 ft 155 kts 174°
2026-04-22 17:00 28.49026 -81.32743 955 ft 159 kts 175°
2026-04-22 17:00 28.47930 -81.32731 738 ft 156 kts 174°
2026-04-22 17:01 28.46878 -81.32715 521 ft 148 kts 175°
2026-04-22 17:01 28.45843 -81.32701 335 ft 150 kts 174°
2026-04-22 17:01 28.44804 -81.32692 171 ft 145 kts 174°
2026-04-22 17:01 28.43878 -81.32681 104 ft 110 kts 180°
2026-04-22 17:02 28.43379 -81.32681 112 ft 42 kts 180°
2026-04-22 17:02 28.43119 -81.32647 109 ft 29 kts 143°
2026-04-22 17:02 28.43060 -81.32526 108 ft 15 kts 95°
2026-04-22 17:02 28.43058 -81.32398 107 ft 17 kts 89°
2026-04-22 17:03 28.43059 -81.32250 104 ft 21 kts 90°
2026-04-22 17:03 28.43060 -81.32069 102 ft 24 kts 89°
2026-04-22 17:03 28.43035 -81.31906 105 ft 20 kts 122°
2026-04-22 17:03 28.42958 -81.31763 104 ft 22 kts 122°
2026-04-22 17:04 28.42829 -81.31681 104 ft 22 kts 168°
2026-04-22 17:04 28.42741 -81.31637 104 ft 9 kts 101°
2026-04-22 17:04 28.42737 -81.31611 103 ft 3 kts 96°
2026-04-22 17:04 28.42738 -81.31578 104 ft 6 kts 85°
2026-04-22 17:05 28.42746 -81.31534 104 ft 5 kts 59°
2026-04-22 17:05 28.42755 -81.31521 104 ft 0 kts 55°
2026-04-22 17:05 28.42760 -81.31513 104 ft 1 kts 53°
2026-04-22 17:05 28.42764 -81.31506 104 ft 0 kts 53°
2026-04-22 17:06 28.42766 -81.31503 104 ft 0 kts 53°
2026-04-22 17:06 28.42767 -81.31502 103 ft 0 kts 53°